Location: *
(49.4547°N, 7.9131°E)
Time: 04:55:03
(UTC+00:00)

Cosmos 1821 Rocket - Pass Details

Date: 22 September 2019
Orbit: 944 x 1005 km, 82.9° (Epoch: 23 October)

Event Time Altitude Azimuth Distance (km) Brightness Sun altitude
Rises 20:36:07 0° 347° (NNW) 3,658 7.8 -29.1°
Reaches altitude 10° 20:38:40 10° 344° (NNW) 2,700 7.0 -29.4°
Maximum altitude 20:44:41 58° 267° (W) 1,104 4.3 -30.1°
Enters shadow 20:45:39 52° 231° (SW) 1,172 4.3 -30.3°
